Location: Smithsonian NASM Public Observatory
(38.8879°N, 77.0185°W)
Time: 07:27:53
(UTC-04:00)

Daily predictions for brighter satellites

Satellite Brightness Start Highest point End
(mag) Time Altitude Azimuth Time Altitude Azimuth Time Altitude Azimuth
OAO 2 Rocket 3.7 20:49:49 10° W 20:54:34 49° S 20:59:20 10° ESE
CENTAUR R/B 3.7 20:47:19 10° NW 20:55:11 61° WSW 21:03:27 10° SSE
Helios 1A 3.3 20:53:05 10° SSE 20:57:11 53° ENE 21:01:16 10° N
Cosmos 1238 Rocket 4.2 20:51:08 10° SSE 20:57:41 57° E 21:03:52 10° NNE
Meteor 1-23 Rocket 4.4 20:53:06 10° SSE 20:58:26 50° E 21:03:52 10° NNE
Meteor 1-19 Rocket 4.4 20:52:47 10° S 20:58:35 86° W 21:04:20 10° N
ISS -1.1 20:56:35 10° W 20:59:20 23° NNW 21:02:03 10° NNE
YAOGAN 6 3.8 20:57:09 10° SE 21:00:03 25° ENE 21:02:58 10° NNE
Resurs 01 Rocket 2.6 20:56:24 10° S 21:00:42 50° W 21:05:01 10° NNW
Cosmos 2082 Rocket 3.3 20:56:50 10° SSE 21:01:10 23° E 21:05:31 10° NE
Nadezhda 1 Rocket 4.1 20:59:06 10° S 21:05:24 68° E 21:11:46 10° NNE
Aureole 1 Rocket 3.3 21:02:34 10° SSW 21:05:40 48° WNW 21:08:35 10° N
Aureole 3 Rocket 3.5 20:59:57 10° S 21:05:56 87° W 21:10:11 10° N
ERS-1 Rocket 4.0 21:01:54 10° SE 21:06:15 30° ENE 21:10:36 10° N
Cosmos 405 3.1 21:04:40 10° N 21:08:11 57° E 21:11:39 10° SSE
COSMOS 2487 3.7 21:05:49 10° SSE 21:08:42 24° E 21:11:37 10° NE
Cosmos 921 Rocket 4.3 21:05:08 10° N 21:08:57 27° ENE 21:12:31 11° ESE
Helios 1B rocket 2.4 21:04:56 10° NNE 21:09:04 70° ESE 21:13:11 10° S
Cosmos 1743 3.7 21:06:57 10° NNW 21:10:43 50° W 21:14:30 10° S
Spot 1 4.1 21:09:34 10° SSE 21:13:59 77° ENE 21:18:13 10° N
Cosmos 1371 Rocket 4.1 21:08:43 10° NNW 21:14:00 67° ENE 21:19:13 10° SSE
OE (NEXTSAT) 4.4 21:11:20 10° WNW 21:14:56 85° NNE 21:18:04 13° ESE
Cosmos 1697 Rocket 4.2 21:13:45 10° N 21:18:00 21° NE 21:22:12 10° ESE
ASTEX 1 3.6 21:14:29 10° SSE 21:19:16 55° E 21:24:03 10° N
PSLV R/B 3.9 21:17:37 10° W 21:20:32 37° SSW 21:22:45 15° SE
Cosmos 1666 3.6 21:21:52 10° NNW 21:25:30 48° W 21:29:07 10° SSW
Cosmos 2369 4.2 21:20:45 10° NNW 21:26:16 47° ENE 21:30:50 15° SE
Okean 2 3.3 21:23:08 10° S 21:27:11 69° E 21:31:15 10° NNE
Meteor 1-15 Rocket 4.2 21:22:17 10° N 21:27:52 70° E 21:33:23 10° SSE
Cosmos 2154 Rocket 4.1 21:22:20 10° N 21:28:42 68° E 21:34:59 10° SSE
Meteor 1-29 3.0 21:26:18 10° N 21:29:40 76° WNW 21:33:01 10° SSW
Cosmos 1833 Rocket 3.1 21:26:39 10° S 21:31:49 39° ESE 21:37:00 10° NE
Meteor 2-9 Rocket 4.4 21:26:22 10° NNW 21:31:55 73° W 21:37:34 10° S
Cosmos 1892 Rocket 3.9 21:28:51 10° SSE 21:33:06 47° E 21:37:19 10° NNE
Tiangong 2 2.4 21:36:07 10° WNW 21:39:09 38° N 21:42:09 10° ENE
Cosmos 1025 Rocket 3.7 21:39:43 10° SSW 21:43:54 56° W 21:48:06 10° N
Cosmos 1606 Rocket 3.4 21:40:11 10° N 21:44:31 77° E 21:47:53 16° SSE
Cosmos 1726 Rocket 3.4 21:48:42 10° N 21:53:02 79° E 21:55:57 20° SSE
Cosmos 1624 Rocket 4.4 21:51:00 10° NNW 21:56:13 61° WSW 22:00:37 15° S
Cosmos 1066 Rocket 4.4 21:52:59 17° SSE 21:56:57 49° E 22:02:22 10° NNE
Cosmos 1515 3.7 21:53:23 10° S 21:57:08 79° W 22:00:57 10° N
Cosmos 1437 Rocket 3.3 21:54:31 10° NNW 21:58:18 55° W 22:01:22 15° S
Terra 3.6 21:59:51 15° E 22:01:37 18° ENE 22:04:47 10° NNE
ARGOS 3.3 22:02:01 24° SSE 22:05:18 64° ENE 22:10:40 10° N
Cosmos 2341 Rocket 4.1 21:59:51 10° N 22:06:14 84° W 22:11:29 16° S
Cosmos 1980 Rocket 3.3 22:02:52 10° N 22:07:52 31° ENE 22:10:36 21° ESE
USA 245 2.9 22:08:25 37° NE 22:08:25 37° NE 22:10:15 10° N
H-2A R/B 2.6 22:06:48 26° ESE 22:09:00 41° ENE 22:13:45 10° N
Timation 2 Rocket 4.1 22:02:56 10° S 22:09:07 53° ESE 22:15:06 10° NE
Hubble Space Telescope 2.7 22:06:27 10° SW 22:08:03 16° SSW 22:08:03 16° SSW
SL-08 RB Rocket 3.8 22:10:08 31° SE 22:12:01 56° ENE 22:16:24 10° N
Cosmos 2218 Rocket 4.2 22:06:47 10° N 22:12:50 56° E 22:16:06 27° SSE
SL-24 DEB 4.1 22:11:31 27° SSE 22:14:02 80° E 22:18:42 10° N
Cosmos 2058 Rocket 3.1 22:11:11 10° N 22:15:37 80° W 22:18:01 27° S
Cosmos 2056 Rocket 4.4 22:11:11 10° NNW 22:15:59 41° WSW 22:19:45 16° SSW
SPOT 5 2.5 22:16:39 34° SSE 22:18:30 80° ENE 22:22:54 10° N
MetOp-B 4.2 22:15:12 23° S 22:18:38 77° WSW 22:24:01 10° NNW
Cosmos 2322 Rocket 4.3 22:16:38 10° NNE 22:19:56 15° NE 22:22:56 11° E
YAOGAN 11 4.2 22:25:48 32° S 22:27:41 70° WSW 22:32:01 10° NNW
CZ-3A R/B 3.1 22:25:29 10° W 22:27:42 18° NW 22:28:59 10° N
Cosmos 1269 Rocket 4.1 22:26:05 32° SSE 22:28:22 57° ESE 22:33:33 10° NNE
H-2A R/B 3.3 22:28:29 27° E 22:29:26 30° ENE 22:33:21 10° N
Lacrosse 5 3.5 22:32:57 19° E 22:32:57 19° E 22:34:51 10° ENE
Cosmos 1420 Rocket 4.0 22:25:44 10° NNW 22:30:58 67° ENE 22:32:49 39° SE
Cosmos 1953 4.4 22:29:02 10° NE 22:31:28 16° ENE 22:31:28 16° ENE
Meteor 2-21 4.4 22:25:55 10° N 22:31:58 72° E 22:34:42 34° SSE
Meteor 1-4 Rocket 2.3 22:29:03 10° N 22:32:37 90° E 22:33:02 68° S
Cosmos 1048 Rocket 3.9 22:30:46 32° S 22:33:02 65° ESE 22:38:11 10° NNE
Cosmos 1812 Rocket 4.0 22:28:48 10° N 22:33:06 44° E 22:33:49 41° ESE
Cosmos 1766 3.7 22:30:13 10° N 22:33:57 42° E 22:34:07 42° E
Meteor 1-21 4.4 22:33:45 37° SE 22:35:39 52° E 22:41:14 10° NNE
Meteor 2-21 Rocket 4.5 22:31:12 10° N 22:37:13 63° E 22:39:33 37° SSE
Cosmos 1626 Rocket 3.4 22:38:00 43° S 22:39:24 88° WNW 22:43:44 10° N
DMSP B5D2-2 4.1 22:37:48 10° NNE 22:43:03 63° ESE 22:44:39 43° SSE
Cosmos 2082 Rocket 3.2 22:39:27 10° SW 22:44:53 46° WNW 22:50:20 10° N
Cosmos 864 Rocket 4.4 22:40:57 10° N 22:47:15 88° E 22:49:55 37° S
Cosmos 2228 4.1 22:43:16 10° NNW 22:47:15 39° W 22:49:02 26° SW
Cosmos 1452 Rocket 3.9 22:42:38 10° NNW 22:47:47 55° WSW 22:49:50 34° SSW
Lacrosse 5 rocket 3.7 22:48:40 10° NNW 22:52:08 20° NNE 22:54:38 14° ENE
Cosmos 1825 Rocket 4.3 22:53:56 37° ENE 22:53:56 37° ENE 22:57:28 10° NNE
Cosmos 1656 4.5 22:51:29 10° NW 22:56:35 41° WSW 22:58:44 29° SSW
SPOT 1/Viking Rocket 4.0 22:59:04 37° SSW 23:00:51 55° W 23:05:56 10° NNW
Cosmos 1805 3.9 22:57:19 10° N 23:00:38 45° NE 23:00:38 45° NE
Cosmos 1697 Rocket 3.1 22:56:50 10° NNW 23:02:18 55° WSW 23:04:02 39° SSW
Meteor 1-22 Rocket 4.5 23:04:46 10° NNW 23:10:01 58° W 23:11:43 40° SSW
Cosmos 2366 rocket 4.5 23:07:28 10° NNW 23:13:25 53° W 23:16:01 32° SSW
Cosmos 2251 Rocket 4.1 23:14:09 41° E 23:14:09 41° E 23:18:47 10° NNE
Iridium 2 4.0 23:09:57 10° N 23:13:11 63° N 23:13:11 63° N
USA 229 DEB 3.7 23:06:46 10° NW 23:13:58 86° WSW 23:16:22 47° SSE
USA 229 3.7 23:06:52 10° NW 23:14:04 87° WSW 23:16:28 47° SSE
SL-16 R/B 3.0 23:09:05 10° N 23:14:22 38° ENE 23:15:34 34° E
Cosmos 2360 4.1 23:09:24 10° NNW 23:15:09 89° WSW 23:16:15 60° SSE
Cosmos 1758 3.9 23:11:41 10° N 23:14:57 49° NE 23:14:57 49° NE
Tiangong 2 3.1 23:12:56 10° WNW 23:14:31 27° WNW 23:14:31 27° WNW
CZ-4 R/B 3.8 23:11:46 10° NNE 23:16:48 71° ESE 23:17:06 69° SE
Meteor 2-8 Rocket 4.4 23:18:11 54° SSE 23:19:36 76° E 23:25:45 10° N
Landsat 7 4.4 23:23:14 42° SW 23:23:56 46° W 23:28:31 10° NNW
Cosmos 1544 4.0 23:23:36 10° NNW 23:26:22 46° NW 23:26:22 46° NW
Cosmos 1842 4.1 23:28:44 44° WNW 23:28:44 44° WNW 23:32:27 10° N
Cosmos 1271 Rocket 3.6 23:25:10 10° NNW 23:28:35 46° WNW 23:28:35 46° WNW
CZ-4B R/B 3.4 23:28:56 10° NNE 23:34:06 87° ESE 23:34:27 78° S
deb Chang Zheng 4 4.0 23:30:05 10° N 23:34:18 57° WNW 23:34:29 56° W
Cosmos 494 Rocket 3.8 23:36:46 77° E 23:36:46 77° E 23:41:49 10° NNE
Terra 2.4 23:38:44 46° WSW 23:38:58 46° W 23:43:34 10° NNW
IGS 5A 4.4 23:39:46 41° W 23:39:46 41° W 23:43:23 10° NNW
SME Rocket 4.1 23:41:05 41° ENE 23:41:05 41° ENE 23:44:46 10° N
CZ-4C R/B 4.5 23:42:13 37° N 23:42:13 37° N 23:44:34 10° N
ATLAS CENTAUR R/B 2.5 23:40:04 10° NNW 23:42:28 35° N 23:42:28 35° N
H-2A R/B 3.8 23:47:26 19° WSW 23:48:35 21° W 23:52:21 10° NW
Cosmos 2360 Rocket 3.4 23:45:48 10° N 23:50:46 30° ENE 23:51:48 29° ENE
Cosmos 1980 Rocket 3.1 23:46:47 10° NW 23:51:50 35° WSW 23:52:22 34° WSW
